アトラス彗星

C/2020 P3 ( ATLAS )

English version
Home page
Updated on September 18, 2021

---------------------------------------------------------------------

・ プロフィール

発見日 2020年8月9日
発見光度 19.0等
発見者 Asteroid Terrestrial-Impact Last Alert System (ATLAS) search program

・ 写真集

・ 軌道要素

Epoch 2021 Apr. 16.0 TT = JDT 2459320.5
T 2021 Apr. 20.88031 TT                                 Rudenko
q   6.8123481            (2000.0)            P               Q
z  +0.0001545      Peri.   82.24741     -0.02861203     -0.95529775
 +/-0.0000010      Node    19.48884     +0.09751188     -0.29564160
e   0.9989476      Incl.   61.88530     +0.99482299     +0.00150334
From 396 observations 2020 Aug. 9-2021 Sept. 1, mean residual 0".5.

・ 光度変化

        m1 = 5.5 + 5 logΔ + 10.0 log r

---------------------------------------------------------------------

軌道要素はM.P.E.C. 2021-R75に掲載されたものです。
光度グラフはComet for Windowsで作成したものです。

---------------------------------------------------------------------

Copyright(C) Seiichi Yoshida (comet@aerith.net). All rights reserved.